Regional Weather Roundup
Issued by NWS

Home | Current Version | Previous Version | Graphics & Text | Print | Product List | Glossary On
Versions: 1 2 3 4 5 6 7 8 9 10 11 12 13 14 15 16 17 18 19 20 21 22 23 24 25 26 27 28 29 30 31 32 33 34 35 36 37 38 39 40 41 42 43 44 45 46 47 48 49 50
000
ASUS43 KOAX 291110
RWRNE

WEATHER ROUNDUP FOR NEBRASKA
NATIONAL WEATHER SERVICE OMAHA NE
600 AM CDT THU SEP 29 2016

NOTES: SATELLITE DATA IS BEING USED TO AUGMENT CLOUD COVER ABOVE
       12000 FEET.
       "FAIR" INDICATES FEW OR NO CLOUDS BELOW 12,000 FEET WITH NO
       SIGNIFICANT WEATHER AND/OR OBSTRUCTIONS TO VISIBILITY.

  * THESE STATIONS DO NOT REPORT WEATHER SUCH AS RAIN...SNOW OR FOG.

NEZ001>004-019>022-054>056-291200-
NEBRASKA PANHANDLE

CITY           SKY/WX    TMP DP  RH WIND       PRES   REMARKS
SCOTTSBLUFF    CLEAR     47  38  71 E8        30.35S
ALLIANCE       CLEAR     40  36  86 SE7       30.36S
CHADRON        CLEAR     59  34  39 S10       30.33R
KIMBALL        CLEAR     47  42  81 S8        30.37F
SIDNEY         CLEAR     46  39  76 S8        30.38S
$$

NEZ057>060-069>072-079>082-291200-
SOUTHWEST NEBRASKA

CITY           SKY/WX    TMP DP  RH WIND       PRES   REMARKS
NORTH PLATTE   CLOUDY    36  34  92 E5        30.42R WCI  32
IMPERIAL       CLOUDY    42  36  79 SE5       30.40R
LEXINGTON      CLOUDY    38  36  92 CALM      30.42R
MCCOOK         CLOUDY    39  35  86 E3        30.41R
OGALLALA       CLOUDY    40  36  85 CALM      30.40R
$$

NEZ005>010-023>029-035>040-094-291200-
NORTH CENTRAL NEBRASKA

CITY           SKY/WX    TMP DP  RH WIND       PRES   REMARKS
VALENTINE      CLEAR     38  36  92 E3        30.40S
AINSWORTH      CLOUDY    37  37 100 S7        30.42R WCI  32
BROKEN BOW     CLEAR     34  34 100 CALM      30.42R
O`NEILL        FOG       38  37  94 CALM      30.42S VSB 1/2
ORD            CLOUDY    36  33  89 CALM      30.42R
THEDFORD       CLOUDY    37  35  94 CALM      30.42R
$$

NEZ041-046>049-061>064-073>077-083>087-291200-
SOUTH CENTRAL NEBRASKA

CITY           SKY/WX    TMP DP  RH WIND       PRES   REMARKS
GRAND ISLAND   CLEAR     38  36  92 W8        30.42R WCI  32
AURORA         CLOUDY    40  40  99 N5        30.41R
HASTINGS       CLEAR     40  37  89 CALM      30.42R
HEBRON         CLOUDY    42  41  96 CALM      30.40R
HOLDREGE       CLOUDY    38  37  94 CALM      30.42R
KEARNEY *      CLOUDY    43  36  75 NW7       30.42R
YORK           CLOUDY    41  41 100 CALM      30.41R
$$

NEZ011>018-030>034-042>045-291200-
NORTHEAST NEBRASKA

CITY           SKY/WX    TMP DP  RH WIND       PRES   REMARKS
NORFOLK        CLOUDY    39  37  92 CALM      30.41R
ALBION         CLOUDY    37  37  97 CALM      30.42R
BLAIR          CLEAR     48  46  93 N9        30.38R
FREMONT        CLEAR     44  43  97 CALM      30.40S
TEKAMAH        CLEAR     43  41  93 N6        30.40R
WAYNE          CLOUDY    37  36  96 CALM      30.43R
$$

NEZ050>053-065>068-078-088>093-291200-
SOUTHEAST NEBRASKA

CITY           SKY/WX    TMP DP  RH WIND       PRES   REMARKS
LINCOLN        CLEAR     44  42  93 CALM      30.41R
OMAHA EPPLEY   CLEAR     46  42  86 N9        30.39R
BEATRICE       CLEAR     43  42  97 W6        30.38R
FALLS CITY     CLEAR     47  45  93 NW7       30.35R
NEBRASKA CITY  CLEAR     47  46  97 N6        30.38R
PLATTSMOUTH    CLEAR     46  43  91 NW3       30.38R
$$

NEZ044-045-051>053-067-291200-
OMAHA AREA

CITY           SKY/WX    TMP DP  RH WIND       PRES   REMARKS
OMAHA EPPLEY   CLEAR     46  42  86 N9        30.39R
BLAIR          CLEAR     48  46  93 N9        30.38R
FREMONT        CLEAR     44  43  97 CALM      30.40S
MILLARD        CLEAR     47  45  91 W5        30.39R
OFFUTT AFB     CLEAR     45  45  99 NW2       30.37R FOG
PLATTSMOUTH    CLEAR     46  43  91 NW3       30.38R
WAHOO          FAIR      45  44  95 N6        30.39S
$$




USA.gov is the U.S. government's official web portal to all federal, state and local government web resources and services.